Theta_e
326 325 325 325 322 322 324 325 324 325 325 324 323 323 323 322 323 324 324 324 324 323 323 324 324 324 325 327 327 328 328 328 327 326 326 327 326 326 326 326 327 328
327 325 325 324 321 321 323 324 324 325 325 323 324 323 322 322 323 324 324 323 323 322 322 323 324 324 324 326 327 327 327 327 326 327 326 326 325 325 325 325 325 326
327 325 324 322 321 321 323 324 325 325 324 324 324 323 322 322 323 323 323 323 322 321 321 323 324 323 323 325 326 327 327 327 326 326 325 325 325 325 324 324 324 324
327 324 324 323 322 324 324 323 324 323 323 324 323 322 322 322 323 322 322 322 321 320 320 321 322 322 321 324 325 326 325 325 323 321 320 320 321 322 322 323 323 323
327 324 325 324 323 324 323 322 322 323 323 323 322 322 321 322 322 322 322 321 320 320 320 319 320 319 320 322 323 324 323 322 319 315 315 316 317 317 318 320 321 320
327 325 325 325 324 323 322 322 322 323 323 322 322 321 321 321 322 321 320 319 319 320 319 318 319 318 318 319 321 321 321 320 317 315 315 315 315 315 315 317 317 316
327 325 325 324 323 322 322 322 322 322 322 321 320 319 319 321 320 319 318 317 318 320 319 318 318 318 317 317 318 318 318 317 316 317 317 316 315 314 314 315 316 315
327 325 324 324 323 323 322 322 322 322 321 320 319 318 319 318 316 314 315 316 317 318 318 317 317 317 317 316 315 316 315 315 317 318 317 316 315 314 314 315 315 315
325 325 324 323 323 323 322 321 321 321 321 319 317 316 316 315 313 312 313 314 315 316 317 316 315 314 315 315 314 314 314 315 316 317 317 315 315 315 316 316 316 315
324 323 323 323 322 322 321 321 320 320 320 317 315 315 315 315 313 313 312 312 312 314 315 314 313 313 313 313 314 313 314 314 316 317 316 315 315 316 317 316 315 315
324 323 322 322 323 321 320 320 320 320 319 317 315 316 316 315 314 314 313 312 312 313 313 313 313 313 312 312 312 312 313 315 316 317 317 316 316 316 316 316 315 315
325 324 323 323 323 321 320 319 319 319 318 317 316 316 316 316 315 314 314 313 312 313 313 313 313 314 313 312 313 313 313 314 316 317 317 317 316 316 316 316 315 315
324 324 323 324 324 323 321 319 319 319 317 317 317 315 315 316 315 315 314 314 313 313 313 313 314 314 313 312 314 314 313 314 316 316 317 316 316 316 316 316 315 315
324 324 324 324 324 322 320 318 318 318 317 318 318 315 315 316 315 314 315 314 314 313 313 313 314 314 313 314 315 315 314 315 316 315 316 316 315 316 315 315 315 315
323 323 324 324 324 322 320 318 317 318 319 319 319 317 317 317 315 313 314 315 314 314 314 314 314 314 313 313 315 315 315 315 315 315 315 315 315 315 314 314 313 313
323 323 323 323 323 322 322 321 320 320 321 321 319 319 319 319 316 315 316 316 315 315 314 314 314 314 313 313 314 315 315 315 315 314 315 315 315 314 314 314 314 313
321 321 321 322 322 322 323 323 323 323 323 322 322 320 319 319 318 317 317 317 316 316 316 315 314 315 314 314 314 314 314 314 314 314 315 315 315 314 314 315 315 315
320 320 321 321 321 321 321 321 322 323 322 321 323 323 320 319 319 318 318 317 317 317 317 317 316 315 315 314 315 314 314 314 314 314 315 315 315 315 315 315 315 315
314 316 318 320 320 320 320 320 320 321 321 320 321 322 322 321 321 321 320 319 319 318 318 318 317 316 314 314 315 315 315 315 315 315 315 315 315 316 316 316 315 316
305 307 309 311 312 313 314 316 317 318 319 320 321 321 321 321 321 322 322 321 321 320 320 320 319 318 317 316 315 316 315 315 316 316 316 316 316 316 316 316 316 316
302 303 304 304 305 306 307 308 309 311 313 315 317 318 319 321 322 322 322 322 322 322 321 321 320 320 319 318 317 317 316 315 316 317 316 316 316 316 316 317 317 317
301 302 302 302 303 304 304 304 305 306 306 308 310 312 313 316 319 320 322 323 323 323 322 322 321 322 322 321 321 319 318 317 317 318 318 318 318 318 317 317 317 318
300 300 301 301 302 302 302 302 303 303 304 304 306 307 307 308 309 311 314 317 320 322 323 322 321 320 321 321 321 321 321 320 319 319 319 319 320 320 320 319 319 318
300 300 300 300 300 301 301 301 302 302 302 303 303 304 304 304 304 305 307 308 312 315 319 321 321 320 320 320 320 320 321 321 321 320 319 318 318 319 320 321 320 319
300 300 300 300 300 300 300 300 301 301 301 302 302 302 302 302 303 303 304 304 306 307 310 313 315 316 318 319 319 320 320 320 320 320 319 319 318 318 318 319 319 319
300 300 300 300 300 300 300 300 300 300 300 300 301 301 301 302 302 302 302 303 304 304 305 306 307 309 312 315 316 318 319 320 320 320 320 320 319 318 318 318 318 319
Wind_Speed
22 22 21 19 19 19 18 15 14 13 13 13 12 11 9 9 9 9 10 10 10 9 9 10 10 8 7 8 7 8 7 8 8 8 7 7 8 9 9 11 13 16
19 20 20 18 18 18 16 14 13 13 14 14 13 12 12 11 10 11 11 10 9 9 9 10 11 9 8 8 8 9 9 10 10 9 9 8 8 8 8 9 10 13
17 20 19 17 17 17 16 14 12 13 14 15 15 14 13 13 12 12 12 11 10 9 9 11 12 10 8 9 10 11 11 11 11 9 8 8 7 7 7 7 8 9
17 20 19 16 17 16 15 14 12 13 16 17 16 15 14 13 12 13 12 11 11 10 11 13 13 11 10 10 12 13 13 12 10 9 8 7 6 7 7 7 7 8
17 21 18 16 16 16 16 14 12 14 17 18 16 14 13 12 13 13 12 11 12 12 13 14 13 11 11 12 12 13 13 12 11 10 10 9 9 10 10 10 10 9
18 21 19 18 17 16 15 13 12 15 17 16 14 12 12 12 13 13 12 12 14 14 13 13 12 11 12 12 13 13 13 13 11 11 12 13 14 15 15 14 14 13
18 19 18 18 17 15 14 13 13 15 15 13 12 11 12 13 12 12 12 13 15 13 12 12 12 11 11 12 14 14 14 13 12 13 15 17 17 16 16 16 17 18
16 19 20 19 18 15 14 14 14 14 14 11 11 12 12 12 11 11 13 14 14 13 12 11 11 11 11 12 14 14 14 13 13 15 16 17 17 16 16 16 17 19
5 10 16 18 19 16 14 14 14 14 13 11 11 13 13 12 11 11 12 12 12 14 14 12 11 11 12 13 14 13 14 14 14 15 16 16 16 17 18 18 18 18
6 7 11 13 15 15 15 14 13 14 12 11 13 15 15 15 13 12 12 12 12 13 14 13 12 12 12 13 12 12 13 15 17 17 16 17 18 18 18 18 19 18
11 13 13 10 8 11 14 13 12 13 12 12 14 16 17 16 14 14 13 13 13 12 12 13 12 11 11 12 12 12 13 15 17 17 16 17 17 16 17 18 18 17
12 13 11 8 7 10 12 12 13 13 13 13 14 15 16 16 15 15 15 14 14 12 12 13 12 10 12 13 12 13 15 15 15 16 16 17 17 16 16 16 15 16
12 12 9 8 10 11 12 13 13 13 13 14 14 13 13 14 16 16 15 15 15 14 13 14 13 12 13 14 12 13 17 17 15 16 18 18 18 17 16 15 14 15
12 14 12 11 11 12 14 15 13 12 13 12 13 14 13 13 16 16 13 15 16 15 15 16 15 13 14 14 13 15 19 19 17 18 19 19 18 18 17 15 15 16
11 14 15 13 11 11 13 13 12 11 11 12 13 13 11 12 16 15 12 14 17 17 16 18 16 14 14 16 15 16 19 20 19 18 18 19 19 18 18 17 16 17
9 11 10 8 6 7 8 11 12 9 7 11 14 14 12 11 13 13 10 12 16 17 18 20 19 16 16 17 17 18 18 19 21 19 17 19 21 20 19 18 17 17
6 7 6 4 4 6 9 11 13 11 8 7 8 11 14 13 12 12 11 11 12 13 14 19 22 20 19 19 19 19 19 20 21 21 18 18 21 22 21 20 19 19
7 6 4 2 2 4 7 6 7 11 11 9 5 5 9 11 11 11 12 11 11 11 10 14 19 22 22 22 21 21 20 20 22 22 21 20 21 22 21 21 21 21
14 13 10 7 6 3 1 2 5 9 11 9 5 2 2 4 6 8 9 10 10 10 10 10 13 19 21 22 24 24 24 23 23 24 24 24 24 23 23 23 24 23
22 21 19 16 14 13 12 9 6 2 2 4 3 3 5 5 5 5 7 9 10 11 11 10 10 13 16 18 21 24 25 26 26 27 27 27 27 26 26 26 26 27
22 21 20 19 18 17 17 17 15 13 12 9 5 3 6 6 6 6 8 9 11 12 14 16 15 13 13 14 16 19 22 24 24 26 27 29 29 29 29 28 29 30
20 20 19 19 18 17 17 17 17 16 15 13 10 7 6 5 5 5 7 10 11 12 13 16 18 18 17 17 17 18 20 21 22 22 23 25 27 29 29 30 31 32
20 20 20 19 19 19 19 19 18 17 16 15 13 12 11 10 10 9 8 9 11 13 14 15 15 16 17 18 18 20 21 22 23 23 23 24 25 25 27 29 32 32
20 20 21 21 21 21 21 21 20 19 18 17 16 16 15 14 13 12 11 10 11 12 14 17 18 17 17 17 18 19 21 22 23 25 25 25 25 25 25 27 29 30
20 20 20 20 20 21 21 21 21 20 19 18 18 18 17 17 16 15 14 13 13 13 14 15 18 19 20 20 20 20 21 22 23 24 25 26 26 27 27 27 27 28
18 18 18 18 19 18 18 19 19 19 20 20 20 20 20 19 18 18 18 17 16 16 17 17 18 19 20 21 22 23 24 25 25 25 26 27 28 28 27 28 29 30
Wind_Direction
174 177 179 177 174 171 169 169 174 177 175 171 169 169 166 164 165 164 157 151 147 137 135 151 151 146 151 156 168 179 183 185 178 178 184 185 189 192 193 197 197 196
180 183 182 177 172 171 169 171 179 182 178 172 168 166 167 166 163 166 166 160 160 149 137 149 152 143 146 154 166 176 175 173 166 164 174 179 180 179 176 180 187 193
186 186 183 177 169 169 169 172 184 189 180 171 169 169 168 169 166 164 162 160 166 160 143 147 153 147 143 149 158 163 162 163 161 160 169 173 174 172 169 168 167 173
188 186 183 176 170 173 176 176 184 186 176 170 170 171 171 173 173 167 163 163 165 159 150 153 155 151 148 151 153 151 152 155 153 152 157 161 166 163 159 162 155 150
185 183 180 176 175 178 178 177 178 173 169 169 170 173 176 178 175 171 171 173 166 155 152 156 159 160 158 159 158 154 153 156 153 153 149 145 144 139 135 139 139 138
182 181 181 178 177 176 175 174 173 168 167 168 170 176 181 180 179 179 179 177 168 159 158 160 163 169 166 163 164 163 162 162 160 153 146 142 141 136 131 130 128 128
183 181 180 177 173 174 174 171 169 168 168 169 171 175 179 180 184 186 181 176 171 167 167 167 169 174 174 170 168 166 165 164 157 150 145 144 144 142 140 136 128 125
184 182 179 175 172 174 176 172 170 169 169 170 171 173 179 184 184 181 175 173 174 174 174 171 173 179 182 178 172 168 168 165 157 151 149 148 149 149 149 148 140 133
132 163 167 169 173 177 177 174 172 172 171 172 172 174 179 179 172 168 171 173 177 177 175 175 178 181 181 179 177 175 175 173 166 159 156 157 158 156 156 157 155 149
103 137 157 165 172 177 177 175 174 175 175 172 173 175 178 177 171 170 173 174 173 175 178 181 184 183 182 182 183 182 179 177 173 167 166 167 167 164 163 162 161 160
155 167 168 164 172 178 176 177 180 180 179 178 178 181 184 184 182 182 185 183 179 179 183 187 189 188 187 188 188 185 181 179 177 176 175 175 173 171 169 166 164 162
161 165 154 146 173 181 173 180 188 186 185 185 186 190 193 196 197 194 194 193 188 183 182 188 191 191 191 191 193 193 190 188 188 189 188 186 185 183 178 174 170 162
169 164 153 156 180 182 175 182 189 189 192 195 196 197 199 203 203 200 202 201 195 189 186 189 192 196 199 198 197 195 191 191 193 192 189 188 191 194 193 190 184 173
168 172 177 175 175 176 178 185 187 190 201 205 202 202 207 206 199 198 205 205 200 197 194 195 198 200 203 202 197 191 189 189 190 188 188 191 195 201 204 204 201 194
165 177 182 175 162 157 167 179 184 196 218 222 211 205 205 202 198 200 207 205 202 202 200 200 202 200 199 199 197 194 193 194 194 194 197 200 202 206 210 210 210 207
158 167 171 161 132 128 154 176 178 184 220 225 214 210 207 199 200 205 206 205 205 206 206 206 205 202 198 199 202 203 204 204 203 203 205 205 207 208 209 210 211 211
119 135 147 140 131 167 195 199 187 184 205 215 204 209 210 205 207 214 215 215 214 214 214 212 210 208 204 204 207 209 210 211 212 212 212 209 209 208 209 211 213 212
73 85 103 101 126 192 216 227 205 201 219 227 198 190 205 204 207 215 219 226 232 233 231 221 215 214 212 210 211 211 214 216 216 217 219 218 215 213 214 217 217 216
69 67 65 61 56 64 130 212 205 209 228 240 220 192 234 214 208 215 220 225 233 239 241 233 224 220 219 217 215 214 217 220 221 221 223 223 223 222 223 225 224 223
66 65 65 65 62 62 69 74 84 118 276 296 279 275 284 273 259 257 251 245 245 247 248 246 237 228 225 224 223 221 222 223 224 225 225 226 226 226 227 227 229 228
55 57 57 55 53 54 57 55 52 50 45 38 29 313 284 277 270 272 272 266 261 258 258 257 256 251 243 235 232 231 230 229 228 228 227 228 228 228 229 229 231 233
41 42 43 41 40 40 40 38 35 34 33 33 30 23 11 356 331 303 291 284 276 271 269 266 263 263 262 256 248 242 238 237 237 234 232 232 231 230 230 229 231 232
26 25 24 23 23 23 23 21 20 18 16 13 8 7 9 6 358 346 330 313 295 283 279 276 273 270 269 267 262 256 251 248 246 243 239 238 237 235 231 230 231 233
23 19 16 13 11 10 8 5 5 5 4 2 359 354 351 347 343 337 332 328 319 303 288 282 280 279 276 272 268 266 262 258 255 252 247 243 240 239 237 235 234 236
31 28 24 20 15 10 6 1 357 354 351 351 351 349 345 340 336 329 321 316 317 316 307 297 292 289 285 280 275 271 267 263 260 255 252 249 246 243 241 241 240 238
34 31 30 27 22 16 11 6 359 352 347 344 343 341 338 335 334 331 324 314 309 310 309 307 305 300 293 287 284 279 273 268 262 256 253 254 251 248 245 243 243 243